GW6864 Weather Reports


Display with metric or nautical units.
time (UTC)temp
F
wind
direction
speed
MPH
gust
MPH
rain 1hr
in
rain 24hr
in
rain mn
in
humidity
%
barometer
mb
20260505152631 69 229 4.0 4.0 0.00 0.00 0.00 54 1015.4
20260505152127 69 235 2.0 2.0 0.00 0.00 0.00 55 1015.3
20260505151622 69 242 4.0 4.0 0.00 0.00 0.00 54 1015.4
20260505151120 69 232 4.0 4.0 0.00 0.00 0.00 54 1015.5
20260505150616 69 186 2.0 2.0 0.00 0.00 0.00 54 1015.4
20260505150113 68 229 4.0 4.0 0.00 0.00 0.00 55 1015.4
20260505140541 68 236 6.0 8.0 0.00 0.00 0.00 53 1014.7
20260505124955 64 186 5.0 8.0 0.00 0.00 0.00 55 1014.9
20260505124451 64 214 7.0 9.0 0.00 0.00 0.00 55 1015.1
20260505123948 63 216 4.0 4.0 0.00 0.00 0.00 57 1014.7
20260505123444 62 197 3.0 4.0 0.00 0.00 0.00 60 1014.8
20260505122940 62 205 2.0 3.0 0.00 0.00 0.00 63 1014.9
20260505122438 60 194 2.0 2.0 0.00 0.00 0.00 67 1014.6
20260505121934 60 176 1.0 1.0 0.00 0.00 0.00 69 1014.5
20260505121432 59 186 1.0 1.0 0.00 0.00 0.00 69 1014.4
20260505120927 59 178 0.0 0.0 0.00 0.00 0.00 72 1014.6
20260505120424 58 175 0.0 0.0 0.00 0.00 0.00 73 1014.4
20260505115923 58 172 1.0 1.0 0.00 0.00 0.00 73 1014.5
20260505115420 58 173 0.0 0.0 0.00 0.00 0.00 73 1014.5
20260505114918 58 173 0.0 0.0 0.00 0.00 0.00 73 1014.1
20260505114414 57 182 0.0 0.0 0.00 0.00 0.00 72 1014.3
20260505113910 57 181 0.0 0.0 0.00 0.00 0.00 72 1014.4
20260505113407 57 181 0.0 0.0 0.00 0.00 0.00 72 1014.2
20260505112903 57 181 0.0 0.0 0.00 0.00 0.00 71 1014.2
20260505112400 56 193 0.0 0.0 0.00 0.00 0.00 72 1014.2
20260505111856 56 194 0.0 0.0 0.00 0.00 0.00 71 1014.2
20260505111351 56 194 0.0 0.0 0.00 0.00 0.00 72 1014.0
20260505110847 56 193 0.0 0.0 0.00 0.00 0.00 72 1014.1
20260505110345 56 193 0.0 0.0 0.00 0.00 0.00 70 1013.8
20260505101815 58 197 0.0 0.0 0.00 0.00 0.00 64 1013.7
20260505101310 58 196 1.0 1.0 0.00 0.00 0.00 65 1013.5
20260505100806 58 194 0.0 0.0 0.00 0.00 0.00 65 1013.6
20260505100303 59 194 0.0 0.0 0.00 0.00 0.00 63 1013.4
20260505095759 59 194 0.0 0.0 0.00 0.00 0.00 63 1013.5
20260505095257 59 176 0.0 1.0 0.00 0.00 0.00 62 1013.6
20260505094752 60 200 0.0 0.0 0.00 0.00 0.00 62 1013.4
20260505094249 60 200 0.0 0.0 0.00 0.00 0.00 61 1013.6
20260505093745 59 191 1.0 1.0 0.00 0.00 0.00 62 1013.5
20260505093243 60 190 0.0 0.0 0.00 0.00 0.00 61 1013.6
20260505092739 60 191 1.0 1.0 0.00 0.00 0.00 60 1013.6
20260505092238 60 174 1.0 1.0 0.00 0.00 0.00 59 1013.6
20260505091735 61 183 0.0 0.0 0.00 0.00 0.00 59 1013.6
20260505091233 62 191 0.0 0.0 0.00 0.00 0.00 58 1013.7
20260505090730 62 201 2.0 2.0 0.00 0.00 0.00 56 1013.6
20260505090229 62 206 2.0 2.0 0.00 0.00 0.00 57 1013.8
20260505085725 62 189 1.0 1.0 0.00 0.00 0.00 57 1013.8
20260505085224 63 172 2.0 2.0 0.00 0.00 0.00 57 1013.9
20260505084721 63 178 2.0 2.0 0.00 0.00 0.00 56 1013.7
20260505084220 63 213 2.0 2.0 0.00 0.00 0.00 55 1013.9
20260505083716 63 205 1.0 1.0 0.00 0.00 0.00 55 1013.7
20260505083213 64 207 3.0 3.0 0.00 0.00 0.00 54 1013.7
20260505082709 64 202 5.0 6.0 0.00 0.00 0.00 54 1013.8
20260505082206 64 224 4.0 4.0 0.00 0.00 0.00 54 1013.7
20260505081702 64 168 5.0 8.0 0.00 0.00 0.00 53 1013.7
20260505081200 64 211 2.0 4.0 0.00 0.00 0.00 54 1013.6
20260505080656 64 208 3.0 3.0 0.00 0.00 0.00 54 1013.6
20260505080152 64 220 3.0 4.0 0.00 0.00 0.00 53 1013.5
20260505075648 64 233 4.0 4.0 0.00 0.00 0.00 53 1013.6
20260505075145 64 210 2.0 2.0 0.00 0.00 0.00 53 1013.4
20260505074642 65 153 3.0 3.0 0.00 0.00 0.00 52 1013.3
20260505074139 65 208 3.0 3.0 0.00 0.00 0.00 52 1013.2
20260505073637 65 211 8.0 8.0 0.00 0.00 0.00 52 1013.2
20260505073135 65 210 3.0 3.0 0.00 0.00 0.00 51 1013.5
20260505072630 65 185 4.0 8.0 0.00 0.00 0.00 51 1013.5
20260505072127 65 192 5.0 7.0 0.00 0.00 0.00 51 1013.2
20260505071623 66 225 6.0 7.0 0.00 0.00 0.00 51 1013.2
20260505071121 66 224 5.0 7.0 0.00 0.00 0.00 50 1012.8
20260505070618 66 210 2.0 2.0 0.00 0.00 0.00 50 1013.0
20260505070114 66 211 6.0 7.0 0.00 0.00 0.00 50 1013.1
20260505065610 66 231 6.0 8.0 0.00 0.00 0.00 51 1013.0
20260505065107 65 191 7.0 9.0 0.00 0.00 0.00 51 1013.2
20260505064603 65 182 3.0 3.0 0.00 0.00 0.00 51 1013.2
20260505064102 66 194 5.0 6.0 0.00 0.00 0.00 50 1013.2
20260505063559 66 197 5.0 6.0 0.00 0.00 0.00 51 1013.3
20260505063055 66 223 5.0 9.0 0.00 0.00 0.00 50 1013.5
20260505062551 66 218 6.0 8.0 0.00 0.00 0.00 50 1013.5
20260505062049 66 223 6.0 8.0 0.00 0.00 0.00 50 1013.5
20260505061546 66 224 3.0 4.0 0.00 0.00 0.00 50 1013.5
20260505061044 66 213 4.0 4.0 0.00 0.00 0.00 50 1013.6
20260505060541 66 218 4.0 6.0 0.00 0.00 0.00 50 1013.5
20260505060037 66 231 4.0 4.0 0.00 0.00 0.00 49 1013.8
20260505055532 66 189 3.0 4.0 0.00 0.00 0.00 49 1013.8
20260505055030 66 208 6.0 6.0 0.00 0.00 0.00 49 1013.7
20260505054527 66 259 4.0 6.0 0.00 0.00 0.00 49 1013.9
20260505054025 66 209 7.0 8.0 0.00 0.00 0.00 49 1013.8
20260505053522 66 226 4.0 4.0 0.00 0.00 0.00 49 1013.9
20260505053019 66 207 2.0 2.0 0.00 0.00 0.00 50 1013.9
20260505052516 66 214 7.0 8.0 0.00 0.00 0.00 48 1013.7
20260505052013 66 211 4.0 4.0 0.00 0.00 0.00 49 1013.7
20260505051510 66 186 2.0 2.0 0.00 0.00 0.00 50 1013.8
20260505051008 66 183 2.0 2.0 0.00 0.00 0.00 49 1013.7
20260505050506 67 199 1.0 2.0 0.00 0.00 0.00 49 1013.7
20260505041433 67 212 5.0 6.0 0.00 0.00 0.00 48 1013.1
20260505040931 67 200 2.0 2.0 0.00 0.00 0.00 49 1013.3
20260505040428 68 203 2.0 3.0 0.00 0.00 0.00 48 1013.1
20260505035925 68 198 6.0 8.0 0.00 0.00 0.00 48 1013.1
20260505035421 68 228 5.0 6.0 0.00 0.00 0.00 48 1013.0
20260505034918 68 236 4.0 4.0 0.00 0.00 0.00 49 1013.1
20260505034414 68 236 5.0 7.0 0.00 0.00 0.00 49 1013.1
20260505033912 68 202 3.0 4.0 0.00 0.00 0.00 49 1013.1
20260505033408 68 212 5.0 6.0 0.00 0.00 0.00 49 1013.1
20260505032907 68 216 4.0 3.0 0.00 0.00 0.00 50 1013.1
20260505032403 68 212 4.0 4.0 0.00 0.00 0.00 50 1013.3
20260505031900 68 145 2.0 3.0 0.00 0.00 0.00 50 1013.2
20260505031357 68 203 5.0 6.0 0.00 0.00 0.00 50 1013.4
20260505030854 68 231 5.0 6.0 0.00 0.00 0.00 50 1013.4
20260505030349 68 198 1.0 2.0 0.00 0.00 0.00 50 1013.4
20260505025845 68 215 3.0 4.0 0.00 0.00 0.00 49 1013.2
20260505025343 68 225 4.0 6.0 0.00 0.00 0.00 49 1013.2
20260505024842 68 211 4.0 6.0 0.00 0.00 0.00 48 1013.2
20260505024339 69 203 1.0 1.0 0.00 0.00 0.00 47 1013.1
20260505023836 69 219 4.0 6.0 0.00 0.00 0.00 47 1013.3
20260505023333 69 223 3.0 4.0 0.00 0.00 0.00 47 1013.0
20260505022830 70 209 4.0 6.0 0.00 0.00 0.00 46 1013.1
20260505022327 70 213 7.0 8.0 0.00 0.00 0.00 46 1013.0
20260505021824 70 189 6.0 6.0 0.00 0.00 0.00 45 1013.0
20260505021321 70 217 4.0 6.0 0.00 0.00 0.00 46 1012.8
20260505020816 70 202 4.0 4.0 0.00 0.00 0.00 44 1013.1
20260505020312 70 190 5.0 6.0 0.00 0.00 0.00 45 1012.8
20260505015809 70 218 5.0 6.0 0.00 0.00 0.00 46 1013.0
20260505015306 70 171 4.0 4.0 0.00 0.00 0.00 46 1013.1
20260505014804 70 196 3.0 3.0 0.00 0.00 0.00 46 1012.7
20260505014301 70 197 4.0 4.0 0.00 0.00 0.00 46 1013.0
20260505013757 70 224 5.0 6.0 0.00 0.00 0.00 46 1013.0
20260505013254 70 207 5.0 6.0 0.00 0.00 0.00 46 1013.1
20260505012753 70 197 3.0 3.0 0.00 0.00 0.00 46 1012.7
20260505012250 70 213 7.0 8.0 0.00 0.00 0.00 46 1012.8
20260505011745 70 203 4.0 4.0 0.00 0.00 0.00 46 1013.0
20260505011242 70 178 5.0 6.0 0.00 0.00 0.00 47 1012.8
20260505010738 70 202 3.0 3.0 0.00 0.00 0.00 46 1012.7
20260505010235 71 205 5.0 6.0 0.00 0.00 0.00 46 1012.8
20260505005731 71 214 3.0 4.0 0.00 0.00 0.00 45 1013.0
20260505005228 71 214 3.0 3.0 0.00 0.00 0.00 45 1013.1
20260505004725 71 212 6.0 7.0 0.00 0.00 0.00 45 1012.8
20260505004222 71 210 3.0 3.0 0.00 0.00 0.00 45 1012.7
20260505003719 72 236 4.0 6.0 0.00 0.00 0.00 44 1012.8
20260505003217 72 221 6.0 8.0 0.00 0.00 0.00 44 1012.7
20260505002713 72 216 5.0 7.0 0.00 0.00 0.00 44 1013.0
20260505002210 73 230 6.0 7.0 0.00 0.00 0.00 43 1012.8
20260505001708 73 229 4.0 6.0 0.00 0.00 0.00 44 1012.8
20260505001205 73 234 6.0 8.0 0.00 0.00 0.00 43 1012.8
20260505000702 73 199 3.0 4.0 0.00 0.00 0.00 44 1013.0
20260505000200 73 205 4.0 4.0 0.00 0.00 0.00 43 1013.0
20260504235656 73 209 4.0 7.0 0.00 0.00 0.00 43 1012.8
20260504235152 74 214 4.0 6.0 0.00 0.00 0.00 42 1013.0
20260504234650 74 207 4.0 6.0 0.00 0.00 0.00 42 1013.1
20260504234147 74 216 5.0 6.0 0.00 0.00 0.00 41 1013.0
20260504233643 74 240 6.0 9.0 0.00 0.00 0.00 41 1013.0
20260504233139 74 223 6.0 7.0 0.00 0.00 0.00 40 1012.7
20260504232637 75 217 6.0 7.0 0.00 0.00 0.00 40 1012.8
20260504232133 75 241 9.0 9.0 0.00 0.00 0.00 40 1013.0
20260504231630 75 212 4.0 6.0 0.00 0.00 0.00 40 1013.0
20260504231126 75 228 6.0 7.0 0.00 0.00 0.00 40 1013.0
20260504230622 75 164 3.0 3.0 0.00 0.00 0.00 39 1012.8
20260504230122 76 231 7.0 8.0 0.00 0.00 0.00 39 1012.8
20260504225619 76 167 7.0 9.0 0.00 0.00 0.00 39 1012.8
20260504225115 76 207 6.0 8.0 0.00 0.00 0.00 38 1012.8
20260504224612 76 214 9.0 10.0 0.00 0.00 0.00 39 1012.8
20260504224109 76 105 4.0 4.0 0.00 0.00 0.00 39 1012.8
20260504223606 76 214 11.0 13.0 0.00 0.00 0.00 39 1013.2
20260504223102 77 201 8.0 9.0 0.00 0.00 0.00 38 1012.8
20260504222559 76 203 3.0 3.0 0.00 0.00 0.00 38 1013.1
20260504222056 77 235 6.0 11.0 0.00 0.00 0.00 38 1013.1
20260504221553 78 248 4.0 4.0 0.00 0.00 0.00 37 1013.0
20260504221050 78 251 6.0 7.0 0.00 0.00 0.00 36 1013.0
20260504220546 78 215 4.0 7.0 0.00 0.00 0.00 36 1012.8
20260504220044 77 232 7.0 9.0 0.00 0.00 0.00 35 1013.0
20260504215540 77 195 7.0 8.0 0.00 0.00 0.00 36 1012.7
20260504215038 78 220 5.0 7.0 0.00 0.00 0.00 38 1012.8
20260504214533 78 226 3.0 4.0 0.00 0.00 0.00 38 1012.7
20260504214030 78 218 6.0 7.0 0.00 0.00 0.00 38 1012.6
20260504213526 78 200 5.0 6.0 0.00 0.00 0.00 40 1012.4
20260504213024 78 266 4.0 7.0 0.00 0.00 0.00 38 1012.5
20260504212519 77 204 6.0 8.0 0.00 0.00 0.00 38 1012.6
20260504212017 77 213 5.0 6.0 0.00 0.00 0.00 38 1012.7
20260504211514 78 239 3.0 6.0 0.00 0.00 0.00 39 1013.1
20260504211011 79 244 6.0 8.0 0.00 0.00 0.00 38 1012.8
20260504210508 78 167 5.0 6.0 0.00 0.00 0.00 38 1013.0
20260504210005 78 233 9.0 10.0 0.00 0.00 0.00 38 1012.8
20260504205502 77 228 10.0 14.0 0.00 0.00 0.00 39 1013.0
20260504205000 78 211 5.0 6.0 0.00 0.00 0.00 39 1013.2
20260504204458 78 259 8.0 9.0 0.00 0.00 0.00 38 1013.1
20260504203957 78 230 4.0 6.0 0.00 0.00 0.00 40 1013.2
20260504203454 77 179 4.0 6.0 0.00 0.00 0.00 40 1013.3
20260504202950 78 222 6.0 11.0 0.00 0.00 0.00 39 1013.2
20260504202447 79 227 7.0 8.0 0.00 0.00 0.00 40 1013.2
20260504201944 78 211 6.0 8.0 0.00 0.00 0.00 41 1013.3
20260504201441 78 251 8.0 13.0 0.00 0.00 0.00 40 1013.7
20260504200939 77 206 6.0 8.0 0.00 0.00 0.00 40 1013.7
20260504200435 77 222 6.0 8.0 0.00 0.00 0.00 42 1013.8
20260504195932 77 228 11.0 11.0 0.00 0.00 0.00 42 1013.9
20260504195427 78 200 10.0 11.0 0.00 0.00 0.00 39 1014.0
20260504194924 77 224 5.0 8.0 0.00 0.00 0.00 43 1013.8
20260504194420 78 206 5.0 6.0 0.00 0.00 0.00 42 1013.8
20260504193916 78 213 8.0 9.0 0.00 0.00 0.00 41 1013.9
20260504193414 78 212 6.0 7.0 0.00 0.00 0.00 42 1014.1
20260504192913 77 184 3.0 4.0 0.00 0.00 0.00 43 1014.0
20260504192409 79 214 11.0 15.0 0.00 0.00 0.00 40 1014.4
20260504191908 79 220 4.0 4.0 0.00 0.00 0.00 41 1014.2
20260504191406 79 212 3.0 3.0 0.00 0.00 0.00 41 1014.3
20260504190901 78 218 7.0 10.0 0.00 0.00 0.00 42 1014.3
20260504190357 78 217 5.0 8.0 0.00 0.00 0.00 46 1014.2
20260504185854 78 209 4.0 4.0 0.00 0.00 0.00 45 1014.2
20260504185351 78 207 8.0 9.0 0.00 0.00 0.00 41 1014.4
20260504184847 78 249 9.0 15.0 0.00 0.00 0.00 44 1014.4
20260504184343 78 207 3.0 6.0 0.00 0.00 0.00 42 1014.3
20260504183839 78 219 9.0 10.0 0.00 0.00 0.00 42 1014.4
20260504183336 78 175 4.0 4.0 0.00 0.00 0.00 43 1014.6
20260504182834 77 201 5.0 7.0 0.00 0.00 0.00 43 1014.5
20260504182331 78 205 8.0 10.0 0.00 0.00 0.00 43 1014.7
20260504181828 77 193 4.0 4.0 0.00 0.00 0.00 43 1014.6
20260504181325 77 213 5.0 7.0 0.00 0.00 0.00 42 1014.7
20260504180824 77 217 6.0 7.0 0.00 0.00 0.00 45 1014.6
20260504180322 77 234 8.0 11.0 0.00 0.00 0.00 45 1014.9
20260504175820 76 277 3.0 4.0 0.00 0.00 0.00 46 1014.8
20260504175316 76 225 6.0 7.0 0.00 0.00 0.00 44 1015.1
20260504174815 76 185 5.0 6.0 0.00 0.00 0.00 45 1014.8
20260504174312 76 177 6.0 8.0 0.00 0.00 0.00 46 1015.0
20260504173808 75 223 8.0 10.0 0.00 0.00 0.00 46 1015.0
20260504173305 76 213 9.0 10.0 0.00 0.00 0.00 45 1015.1
20260504172802 75 211 6.0 8.0 0.00 0.00 0.00 46 1015.1
20260504172259 75 172 2.0 3.0 0.00 0.00 0.00 45 1015.2
20260504171754 75 207 4.0 4.0 0.00 0.00 0.00 44 1015.2
20260504171252 75 212 3.0 3.0 0.00 0.00 0.00 48 1015.2
20260504170749 75 206 9.0 13.0 0.00 0.00 0.00 45 1015.4
20260504170246 75 212 4.0 6.0 0.00 0.00 0.00 46 1015.5
20260504160204 71 213 4.0 4.0 0.00 0.00 0.00 51 1016.2